Weather History for KISP - October, 2012

Change the Weather History Date:

Monday, October 8, 2012

  Actual Average Record
Temperature  
Mean Temperature 50 °F 57 °F  
Max Temperature 57 °F 66 °F 88 °F (2007)
Min Temperature 42 °F 48 °F 34 °F (1999)
Degree Days  
Heating Degree Days 15 9  
Month to date heating degree days 35 60  
Since 1 July heating degree days 88 137  
Cooling Degree Days 0 1  
Month to date cooling degree days 15 8  
Year to date cooling degree days 993 785  
Moisture  
Dew Point 43 °F    
Average Humidity 76    
Maximum Humidity 96    
Minimum Humidity 55    
Precipitation  
Precipitation 0.00 in 0.13 in 1.65 in (1996)
Month to date precipitation 0.30 0.99  
Year to date precipitation 34.90 35.71  
Snow  
Snow 0.00 in 0.00 in - ()
Month to date snowfall 0.0 0.0  
Since 1 July snowfall 0.0 0.0  
Snow Depth 0.00 in    
Sea Level Pressure  
Sea Level Pressure 30.20 in    
Wind  
Wind Speed 4 mph (NNW)    
Max Wind Speed 10 mph    
Max Gust Speed 14 mph    
Visibility 10 miles    
Events      
T = Trace of Precipitation, MM = Missing Value Source: NWS Daily Summary

Daily Weather History Graph

Daily Weather History Graph

Search for Another Location

Airport or City:

Trip Planner

Search our weather history database for the weather conditions in past years. The results will help you decide how hot, cold, wet, or windy it might be!

Date:

Astronomy

Oct. 08, 2012 Rise Set
Actual Time 6:56 AM EDT 6:22 PM EDT
Civil Twilight 6:29 AM EDT 6:49 PM EDT
Nautical Twilight 5:57 AM EDT 7:21 PM EDT
Astronomical Twilight 5:25 AM EDT 7:53 PM EDT
Moon No Moon Rise 2:12 PM EDT (10/8)
Length of Visible Light 12h 20m
Length of Day
11h 25m
Waning Gibbous, 46% of the Moon is Illuminated
Oct 8
Waning Gibbous
Oct 15
New
Oct 21
First Quarter
Oct 29
Full
Nov 6
Last Quarter

Hourly Weather History & Observations

Time (EDT) Temp. Windchill Dew Point Humidity Pressure Visibility Wind Dir Wind Speed Gust Speed Precip Events Conditions
12:45 AM 48.2 °F - 46.4 °F 93% 30.09 in 10.0 mi WNW 4.6 mph - 0.01 in   Overcast
12:56 AM 48.9 °F - 46.0 °F 90% 30.09 in 10.0 mi West 4.6 mph - 0.01 in   Overcast
1:56 AM 46.9 °F - 45.0 °F 93% 30.10 in 10.0 mi Calm Calm - N/A   Partly Cloudy
2:56 AM 45.0 °F 43.5 °F 43.0 °F 93% 30.10 in 10.0 mi West 3.5 mph - N/A   Clear
3:56 AM 45.0 °F 41.8 °F 42.1 °F 90% 30.11 in 10.0 mi NW 5.8 mph - N/A   Clear
4:56 AM 44.1 °F 41.5 °F 42.1 °F 93% 30.13 in 10.0 mi WNW 4.6 mph - N/A   Clear
5:56 AM 43.0 °F 41.3 °F 41.0 °F 93% 30.13 in 10.0 mi WNW 3.5 mph - N/A   Clear
6:56 AM 43.0 °F - 39.9 °F 89% 30.17 in 10.0 mi Calm Calm - N/A   Scattered Clouds
7:56 AM 45.0 °F 42.6 °F 42.1 °F 90% 30.21 in 10.0 mi WNW 4.6 mph - N/A   Scattered Clouds
8:56 AM 52.0 °F - 45.0 °F 77% 30.23 in 10.0 mi North 5.8 mph - N/A   Scattered Clouds
9:56 AM 52.0 °F - 44.1 °F 74% 30.24 in 10.0 mi North 5.8 mph - N/A   Mostly Cloudy
10:56 AM 53.1 °F - 41.0 °F 64% 30.24 in 10.0 mi NNE 9.2 mph - N/A   Mostly Cloudy
11:56 AM 55.0 °F - 39.9 °F 57% 30.24 in 10.0 mi NNE 5.8 mph - N/A   Overcast
12:56 PM 55.0 °F - 39.9 °F 57% 30.25 in 10.0 mi Calm Calm - N/A   Overcast
1:56 PM 54.0 °F - 39.9 °F 59% 30.25 in 10.0 mi East 3.5 mph - N/A   Overcast
2:56 PM 54.0 °F - 41.0 °F 62% 30.25 in 10.0 mi SW 3.5 mph - N/A   Overcast
4:56 PM 54.0 °F - 43.0 °F 66% 30.25 in 10.0 mi NE 3.5 mph - N/A   Overcast
5:56 PM 53.1 °F - 44.1 °F 71% 30.27 in 10.0 mi Calm Calm - N/A   Overcast
6:56 PM 52.0 °F - 45.0 °F 77% 30.26 in 10.0 mi ENE 4.6 mph - N/A   Overcast
7:56 PM 52.0 °F - 45.0 °F 77% 30.26 in 10.0 mi ESE 3.5 mph - N/A   Overcast
10:56 PM 50.0 °F - 43.0 °F 77% 30.25 in 10.0 mi NNE 4.6 mph - N/A   Overcast
11:56 PM 50.0 °F - 44.1 °F 80% 30.22 in 10.0 mi ENE 3.5 mph - N/A   Overcast